Location: Friaudour
(46.0460°N, 1.2873°E)
Time: 20:33:15
(UTC+00:00)

Cosmos 1269 Rocket - Pass Details

Date: 14 July 2020
Orbit: 773 x 779 km, 74.1° (Epoch: 14 August)

Event Time Altitude Azimuth Distance (km) Brightness Sun altitude
Exits shadow 00:07:33 36° 236° (SW) 1,204 4.7 -22.3°
Maximum altitude 00:09:27 57° 296° (WNW) 915 4.4 -22.3°
Drops below altitude 10° 00:14:39 10° 14° (NNE) 2,329 7.6 -22.2°
Sets 00:17:05 0° 19° (NNE) 3,260 8.6 -22.2°
